Ana Sayfa Hakkında İletişim Sponsor Reklam

Blog

Bugün Düşen Domainler

Tüm Domainler

Satılık Domainler

Domain Uzantıları

Teklif Ver

Düşmüş Domainler

3 karakterli

4 Karakterli

5 Karakterli

6 Karakterli

Domain Ne Zaman Düşer

Boşa Düşen Domainler

Süresi Biten Domainler

Düşen Domainler

Domain Sorgulama

A B C D E F G H I J K L M N O P Q R S T U V X Y Z 0 1 2 3 4 5 6 7 8 9
Domain Bitiş Tarihi Kr. Yil Popülerlik
STIFFYTGP.COM 24.5.2017 9 1 91
STIGMASTORIES.COM 24.5.2017 13 3 72
STIKESUR.COM 24.5.2017 8 1 21
STIKPHOTOGRAPHY.COM 24.5.2017 15 5 28
STIKUD.COM 24.5.2017 6 2 14
STILES1.NET 24.5.2017 7 5 29
STILLHUMANLIKEUS.COM 24.5.2017 16 5 22
STILLKINETICS.COM 24.5.2017 13 1 66
STILLMENSTORE.COM 24.5.2017 13 1 34
STILLNESSINMOTIONDANCE.COM 24.5.2017 22 1 29
STILLOBRANCO.COM 24.5.2017 12 1 31
STILLPHOTO.NET 24.5.2017 10 1 32
STILLSERIGRAFI.COM 24.5.2017 14 5 19
STILLSHOOTERS.COM 24.5.2017 13 1 15
STILPLAST-MATERIEPLASTICHE.NET 24.5.2017 26 2 28
STILTHOMES.COM 24.5.2017 10 17 35
STILTONBUILDERS.COM 24.5.2017 15 1 61
STIMULATEYOURPASSION.COM 24.5.2017 20 4 23
STING-SERVICES.COM 24.5.2017 14 3 53
STINGERMAC.COM 24.5.2017 10 1 49
STINK-MAIL.COM 24.5.2017 10 1 20
STINKIFY.COM 24.5.2017 8 1 15
STINKIFY.NET 24.5.2017 8 1 24
STINKWEASELSTUDIOS.COM 24.5.2017 18 1 15
STINTERHOME.COM 24.5.2017 11 1 57
STINVA.COM 24.5.2017 6 1 21
STIPOSITIVE.COM 24.5.2017 11 10 0
STIRCHLEYCARPETS.COM 24.5.2017 16 3 21
STIRLINGFUELSUPPLY.COM 24.5.2017 18 1 4
STITCHINGSBYSWEETPE.COM 24.5.2017 19 1 20
STITCHNUP.COM 24.5.2017 9 10 20
STITCHSTUDIOCOLORADOSPRINGS.COM 24.5.2017 27 3 110
STIXANDSNAX.COM 24.5.2017 11 4 21
STJT3E3N40HSS.NET 24.5.2017 13 1 31
STJUDECLEANINGSERVICES.COM 24.5.2017 22 2 25
STKEMAILAGENT.COM 24.5.2017 13 4 24
STKSYS.COM 24.5.2017 6 8 30
STLAWRENCEKITCHEN.COM 24.5.2017 17 6 40
STLFREE.COM 24.5.2017 7 7 22
STLGRADUATION.COM 24.5.2017 13 1 19
STLIPHIX.COM 24.5.2017 8 6 41
STLMHY.COM 24.5.2017 6 6 43
STLORENZSURVEY.COM 24.5.2017 14 1 17
STLOUISHOTLINES.COM 24.5.2017 15 11 19
STLOUISRAMSCHEERLEADERS.NET 24.5.2017 23 1 22
STLTYX.COM 24.5.2017 6 2 63
STLUCIAWATERSPORTS.COM 24.5.2017 18 5 31
STLUKEBUILDINGPEACE.NET 24.5.2017 19 5 30
STLVOICE.NET 24.5.2017 8 1 21
STLXC60.COM 24.5.2017 7 1 50